This demonstration page uses our WeatherBlox Daily Observations layout. Learn more.

Left ArrowRight Arrow

Hourly Observations for September 17, 2015

Temp ( °F °C ) Dew Point ( °F °C ) Humidity (%) Winds ( mph kmh ) Pressure ( in mb ) Visibility ( mi km ) Precip ( " mm )
12:11 am 00:11 Cloudy 59 15 55 12.8 87 87 Calm 30.00 1016 10 16 0.00 0.00
12:53 am 00:53 Cloudy 59 15 55 12.8 87 87 Calm 30.01 1016 10 16 0.00 0.00
1:24 am 01:24 Cloudy 59 15 55 13 88 88 Calm 30.00 1016 10 16 0.00 0.00
1:32 am 01:32 Cloudy 59 15 55 13 88 88 Calm 30.00 1016 10 16 0.00 0.00
1:41 am 01:41 Cloudy 59 15 55 12.8 87 87 Calm 30.00 1016 10 16 0.00 0.00
1:53 am 01:53 Cloudy 58 14.4 55 12.8 90 90 Calm 30.02 1017 10 16 0.00 0.00
2:01 am 02:01 Cloudy 58 14.4 55 12.8 90 90 Calm 30.03 1017 10 16 0.00 0.00
2:22 am 02:22 Mostly Cloudy 57 14 55 13 94 94 W 3 6 30.03 1017 10 16 0.00 0.00
2:53 am 02:53 Cloudy 59 15 55 12.8 87 87 Calm 30.03 1017 10 16 0.00 0.00
3:05 am 03:05 Cloudy 59 15 56 13.3 90 90 Calm 30.00 1016 10 16 0.00 0.00
3:18 am 03:18 Cloudy 59 15 55 13 88 88 Calm 30.00 1016 10 16 0.00 0.00
3:53 am 03:53 Cloudy 60 15.6 56 13.3 86 86 Calm 30.03 1017 10 16 0.00 0.00
4:14 am 04:14 Cloudy 59 15 55 13 88 88 Calm 30.00 1016 10 16 0.00 0.00
4:45 am 04:45 Cloudy 59 15 56 13.3 90 90 Calm 30.00 1016 10 16 0.00 0.00
4:53 am 04:53 Cloudy 59 15 56 13.3 90 90 Calm 30.04 1017 10 16 0.00 0.00
5:53 am 05:53 Cloudy 59 15 55 12.8 87 87 NNW 5 7 30.04 1017 10 16 0.00 0.00
6:00 am 06:00 Cloudy 57 14 54 12 88 88 NNW 3 6 30.06 1018 10 16 0.00 0.00
6:53 am 06:53 Cloudy 58 14.4 54 12.2 87 87 NW 3 6 30.06 1018 10 16 0.00 0.00
7:44 am 07:44 Cloudy 57 14 54 12 88 88 WNW 5 7 30.09 1019 10 16 0.00 0.00
7:53 am 07:53 Cloudy 58 14.4 55 12.8 90 90 NW 6 9 30.07 1018 10 16 0.00 0.00
8:08 am 08:08 Mostly Cloudy 57 14 54 12 88 88 NW 7 11 30.09 1019 10 16 0.00 0.00
8:53 am 08:53 Sunny 62 16.7 56 13.3 80 80 Calm 30.09 1019 10 16 0.00 0.00
9:53 am 09:53 Mostly Cloudy 63 17.2 56 13.3 78 78 NW 3 6 30.10 1019 10 16 0.00 0.00
10:32 am 10:32 Mostly Cloudy 64 18 55 13 73 73 NE 3 6 30.09 1019 10 16 0.00 0.00
10:46 am 10:46 Partly Cloudy 66 18.9 55 12.8 68 68 Calm 30.09 1019 10 16 0.00 0.00
10:53 am 10:53 Partly Cloudy 67 19.4 55 12.8 66 66 Calm 30.11 1020 10 16 0.00 0.00
11:53 am 11:53 Partly Cloudy 68 20 54 12.2 61 61 Calm 30.10 1019 10 16 0.00 0.00
12:53 pm 12:53 Partly Cloudy 71 21.7 52 11.1 51 51 Calm 30.08 1019 10 16 0.00 0.00
1:53 pm 13:53 Partly Cloudy 73 22.8 50 10 44 44 SW 3 6 30.06 1018 10 16 0.00 0.00
2:53 pm 14:53 Mostly Sunny 75 23.9 50 10 41 41 Calm 30.03 1017 10 16 0.00 0.00
3:53 pm 15:53 Sunny 77 25 48 8.9 36 36 NNW 6 9 30.01 1016 10 16 0.00 0.00
4:53 pm 16:53 Sunny 78 25.6 48 8.9 35 35 VRB 5 7 29.99 1016 10 16 0.00 0.00
5:53 pm 17:53 Sunny 77 25 46 7.8 33 33 ENE 3 6 29.98 1015 10 16 0.00 0.00
6:53 pm 18:53 Sunny 76 24.4 48 8.9 37 37 NNE 3 6 29.98 1015 10 16 0.00 0.00
7:53 pm 19:53 Clear 69 20.6 51 10.6 53 53 NW 3 6 29.98 1015 10 16 0.00 0.00
8:53 pm 20:53 Clear 68 20 51 10.6 55 55 NNW 5 7 29.99 1016 10 16 0.00 0.00
9:53 pm 21:53 Clear 65 18.3 53 11.7 66 66 NNW 5 7 30.00 1016 10 16 0.00 0.00
10:53 pm 22:53 Clear 64 17.8 53 11.7 68 68 NNW 5 7 29.99 1016 10 16 0.00 0.00
11:53 pm 23:53 Clear 62 16.7 52 11.1 70 70 NW 5 7 29.99 1016 10 16 0.00 0.00

Powered by AerisWeather